Theta_e
314 314 314 314 313 313 312 312 313 313 313 314 314 314 315 315 315 316 316 316 316 316 316 317 317 318 318 318 318 317 317 317 316 316 316 316 316 317 317 317 318 317 317 316 317 317 317 317 317 316 315 315 315 315 316 316 316 315 315 314 312 311 311 311 311 312 312 312 311
313 314 314 313 313 312 312 312 312 312 313 313 314 314 315 315 315 316 316 316 316 316 316 317 317 318 318 319 318 317 317 316 316 316 316 316 316 317 317 317 317 316 316 316 316 316 316 316 316 315 315 315 315 315 315 316 316 315 314 313 312 311 310 310 310 311 311 312 312
313 313 313 313 312 312 311 311 311 312 313 313 314 314 315 315 315 315 316 316 316 316 316 316 318 318 318 318 318 318 317 316 316 316 316 316 317 317 317 316 315 315 315 316 316 316 316 316 316 315 315 315 315 315 315 315 315 314 313 312 311 310 310 309 309 310 310 311 311
313 313 313 312 312 311 311 311 311 312 312 313 314 314 315 315 315 315 315 316 316 316 317 317 318 319 318 318 318 317 317 316 316 316 316 317 317 316 316 315 315 315 315 316 316 316 316 316 316 315 315 315 315 315 314 314 314 313 311 311 310 310 310 309 310 310 310 310 310
313 313 312 312 312 311 311 311 311 312 312 313 313 314 314 315 315 315 315 315 315 315 316 318 318 318 318 318 317 317 316 316 316 316 316 317 316 316 315 315 315 315 315 315 315 315 314 315 314 315 315 315 315 314 314 314 313 312 311 310 310 310 310 310 310 310 310 310 309
312 312 313 312 312 312 312 312 312 312 312 313 312 313 313 313 313 314 314 314 314 316 317 318 318 318 317 317 317 316 316 316 316 316 316 316 315 315 314 315 315 315 315 314 314 314 314 313 313 314 314 314 314 314 314 313 312 311 310 310 310 310 310 309 310 310 310 310 309
312 312 312 312 312 312 312 311 312 312 312 312 312 312 312 313 313 314 314 314 315 315 316 317 317 317 317 317 316 316 316 316 316 316 316 315 315 314 314 315 315 315 314 313 313 312 312 313 312 313 313 313 313 313 313 313 312 310 310 309 309 310 310 310 310 310 310 310 309
311 311 312 312 312 312 312 311 311 312 311 311 311 312 312 313 313 314 313 314 314 314 315 316 317 317 316 316 315 315 315 315 315 315 315 315 314 314 315 315 315 314 314 313 313 312 312 312 312 312 312 312 312 313 313 312 311 310 309 309 309 310 311 311 311 311 311 310 310
311 311 311 312 312 312 311 311 311 311 311 311 311 312 312 313 314 313 313 313 313 314 315 316 316 316 316 315 315 315 315 315 315 315 315 314 313 314 315 315 314 314 313 313 312 312 311 311 311 312 312 312 312 312 312 312 311 310 309 309 309 310 311 311 311 311 311 310 309
311 311 311 311 311 311 311 310 311 311 311 311 312 312 313 313 314 313 313 313 313 314 314 315 316 315 316 315 315 315 315 315 315 315 314 313 313 314 314 314 314 313 313 313 312 312 311 311 311 311 312 312 312 312 312 312 311 310 310 309 309 309 310 310 311 311 311 311 310
311 311 311 311 311 311 311 310 311 311 311 311 312 312 312 313 313 313 313 313 313 313 314 315 315 315 315 315 315 315 315 316 315 315 314 313 313 314 314 314 313 312 312 312 312 311 311 310 310 311 311 312 312 312 312 312 311 310 310 309 309 309 309 309 310 310 310 310 309
310 311 311 311 311 311 311 310 310 310 310 310 311 312 312 313 313 313 313 313 312 313 313 314 315 315 315 315 315 315 315 315 315 315 314 313 314 314 314 313 312 312 312 312 312 311 311 310 310 310 310 311 312 312 312 312 311 310 309 309 309 309 309 308 309 309 310 309 309
310 311 311 311 311 310 310 310 309 309 309 310 310 311 312 313 313 313 312 312 312 312 313 314 314 315 315 315 315 315 315 315 315 314 314 314 314 314 313 313 312 312 311 311 311 311 310 310 310 309 309 310 311 311 311 311 310 310 309 309 309 308 308 308 308 309 309 309 308
310 311 311 311 310 310 310 309 309 309 309 309 310 311 312 312 313 312 312 311 311 312 313 313 314 314 314 314 314 314 314 315 315 314 314 314 314 314 313 312 312 311 311 311 311 311 310 310 309 309 309 309 309 310 310 310 310 310 309 309 308 308 308 308 308 308 308 307 307
310 310 311 311 310 310 309 308 308 308 309 309 310 311 312 312 312 312 311 311 311 311 312 312 313 314 314 314 314 314 314 314 314 314 314 313 313 313 313 312 311 311 310 310 310 310 310 310 309 309 309 309 309 309 309 310 309 309 309 309 308 307 307 307 307 307 307 307 307
309 310 310 311 310 309 309 308 308 308 309 309 310 311 311 312 311 311 311 310 310 310 311 312 313 314 314 314 314 314 314 314 314 314 313 313 313 312 312 311 310 310 310 310 310 310 310 310 310 309 309 309 309 309 309 309 309 309 309 309 308 307 307 307 307 307 307 307 307
309 309 309 310 310 310 309 308 308 308 309 309 310 310 311 311 311 310 310 309 309 310 310 311 312 312 312 313 313 313 313 314 314 314 314 313 312 312 311 310 310 310 309 309 309 309 309 310 310 310 310 309 309 309 309 309 309 308 308 308 308 307 307 307 307 307 307 307 307
309 309 309 309 310 309 309 308 308 309 309 309 309 310 310 310 310 309 309 309 308 309 309 310 311 311 311 311 312 312 312 313 313 313 313 313 312 312 311 310 310 310 310 309 309 309 309 309 309 309 309 309 309 309 308 308 308 307 307 307 307 307 307 307 307 307 307 307 306
309 309 309 309 310 310 309 309 309 309 309 309 309 310 310 310 309 309 308 308 308 309 309 310 310 310 310 310 311 311 311 312 312 313 313 313 312 311 310 310 310 309 309 309 309 309 309 309 309 309 309 309 308 308 307 307 307 307 306 306 307 307 307 307 307 307 307 307 307
309 309 309 309 309 310 310 309 309 309 309 309 309 309 310 309 309 308 308 307 308 308 309 309 309 309 309 310 310 311 311 312 312 312 313 312 312 311 310 309 309 309 309 309 309 309 308 308 308 308 308 308 307 307 307 306 306 306 306 306 306 306 306 307 307 307 307 307 307
309 309 309 309 310 310 310 309 309 309 309 309 309 309 310 309 309 308 308 307 308 308 308 308 309 309 309 310 310 310 311 312 312 312 312 312 311 310 310 309 309 308 308 308 308 308 308 308 308 308 307 307 307 306 306 306 305 305 305 305 305 305 306 306 307 307 307 307 307
310 310 310 310 310 310 310 310 309 309 309 309 309 309 309 309 308 308 308 308 308 308 308 308 309 309 309 310 310 310 311 311 312 312 312 312 310 309 309 309 309 308 308 308 308 308 308 307 307 307 307 306 306 306 306 305 305 305 305 304 304 305 305 306 306 306 307 307 307
310 310 310 310 310 310 310 310 309 309 309 308 308 309 309 308 308 308 307 307 307 307 308 308 309 309 309 310 310 310 310 310 310 311 311 311 309 309 308 308 309 309 308 308 308 308 307 307 307 307 307 307 306 306 305 305 305 305 305 304 304 304 305 305 306 306 306 306 307
310 310 310 310 310 310 310 309 309 308 308 308 308 308 308 308 308 307 306 306 307 307 308 308 308 309 309 310 310 310 309 309 309 309 309 309 308 308 308 308 309 309 309 309 309 308 308 308 307 307 307 306 306 306 306 305 305 305 305 304 304 304 304 305 305 305 305 305 306
310 310 310 310 310 309 309 309 308 308 307 308 308 307 307 307 307 307 306 306 306 307 307 308 308 309 309 310 310 309 309 309 308 308 308 308 308 308 308 309 309 309 310 309 308 308 308 308 307 307 307 307 306 306 306 306 306 305 305 305 305 304 304 304 305 305 305 305 306
310 310 310 310 310 309 308 308 307 307 308 308 307 307 307 307 307 306 305 305 306 307 307 307 308 308 308 309 309 309 308 308 309 309 308 308 308 309 309 309 310 310 309 308 308 308 308 308 307 307 307 307 306 306 306 305 306 306 306 305 305 305 305 304 305 305 305 306 307
310 309 309 310 309 309 308 308 307 307 307 308 307 307 307 306 306 305 305 305 305 306 307 307 307 308 308 308 308 308 308 308 309 309 309 309 309 309 310 310 310 310 310 308 308 308 308 308 307 307 307 307 307 306 305 305 305 306 306 306 306 305 305 305 305 305 306 307 308
309 309 309 309 309 309 308 307 307 307 307 307 307 307 306 306 306 305 304 304 305 305 306 307 307 308 308 307 307 307 308 308 309 309 309 310 310 310 310 311 310 310 310 309 309 309 309 308 307 307 307 307 307 306 305 305 305 305 305 305 305 305 305 305 305 306 307 307 308
309 309 308 308 308 308 308 307 307 307 306 307 307 307 306 306 305 305 304 304 305 305 305 306 307 307 307 307 307 307 308 308 309 309 309 309 310 310 311 311 310 310 310 309 310 309 309 308 308 307 307 306 306 305 305 305 305 305 305 305 306 306 306 306 306 306 307 307 308
310 309 308 308 308 308 307 307 307 307 307 306 306 306 306 305 305 305 304 304 304 305 306 306 306 306 307 307 307 307 308 308 309 309 309 309 309 310 310 310 310 310 310 310 310 310 309 309 308 308 307 306 306 305 305 305 305 305 305 305 306 306 306 306 307 307 307 307 307
310 309 308 308 308 307 307 308 307 307 307 306 306 306 305 305 305 304 304 304 305 306 306 306 306 306 306 307 307 307 307 308 308 309 309 309 309 309 310 310 309 310 310 310 310 310 310 309 308 307 306 305 305 305 305 305 305 305 305 305 306 306 306 307 307 307 307 307 307
310 309 308 308 308 307 307 307 307 307 307 306 306 305 305 305 305 305 305 305 305 306 306 306 305 306 306 307 307 307 307 308 308 308 309 309 309 309 309 309 309 310 310 311 311 311 310 309 308 307 306 305 305 305 305 305 305 305 305 306 306 307 307 307 307 307 307 307 307
310 309 308 308 307 307 307 307 307 307 306 306 306 305 305 305 305 305 305 305 306 306 305 305 305 305 305 306 307 307 307 307 308 308 309 309 309 308 308 309 310 310 311 311 311 311 310 309 308 307 306 305 305 304 305 304 305 305 305 306 306 307 307 307 307 307 307 307 307
310 309 308 307 307 307 307 307 307 307 306 305 305 305 305 305 305 305 305 305 306 306 306 306 306 305 306 306 307 307 307 307 307 308 308 308 308 308 308 309 310 310 311 311 311 311 310 309 308 307 306 305 304 304 304 304 304 305 305 306 307 307 307 308 308 307 307 307 307
310 309 308 307 307 307 307 306 306 306 306 305 305 305 305 305 304 305 305 306 306 306 306 306 306 306 306 306 307 307 306 306 307 307 307 307 307 308 308 309 310 311 311 312 311 311 310 309 308 306 305 304 304 303 304 304 304 304 305 306 306 307 307 308 308 308 307 307 307
310 309 308 307 307 307 306 306 306 306 305 305 305 304 305 305 305 305 306 306 306 306 306 306 305 305 305 305 306 306 306 306 306 306 306 307 307 307 308 309 310 311 311 312 311 311 310 309 308 306 305 304 304 303 303 304 304 305 305 306 306 307 307 307 307 307 308 307 307
311 309 309 307 307 307 306 306 306 306 305 305 305 304 304 305 304 305 306 306 306 306 305 305 304 304 304 304 305 305 306 306 306 306 306 306 306 307 308 309 310 311 311 312 311 310 310 309 308 306 305 303 303 303 303 304 304 304 305 305 306 306 307 307 307 307 307 307 307
311 310 309 308 307 307 306 306 306 305 305 305 305 305 305 304 305 305 306 306 305 305 305 304 304 304 304 304 305 305 306 306 306 306 305 305 306 307 308 309 310 310 311 311 311 310 310 308 307 306 304 303 303 303 303 303 304 304 304 305 305 305 306 306 306 307 307 307 306
311 310 309 308 307 307 306 306 306 306 305 306 305 305 305 305 305 305 306 306 306 305 305 304 304 304 304 305 305 305 305 306 306 306 306 305 306 307 309 309 310 311 311 311 311 310 309 308 307 305 304 303 303 303 303 303 303 304 304 304 304 304 305 306 306 306 306 307 306
311 310 310 308 307 307 306 306 306 306 306 306 305 305 305 305 305 305 306 306 306 306 305 304 304 304 304 305 304 304 304 305 305 306 306 306 307 308 309 310 310 310 311 311 310 310 309 308 307 306 304 303 303 303 303 303 303 303 303 303 303 303 304 305 305 306 306 306 307
311 310 309 309 308 307 307 306 306 306 306 306 306 305 305 305 306 306 306 306 306 305 305 305 304 304 304 304 304 304 304 304 305 305 306 306 307 308 309 310 310 310 310 310 310 310 309 308 306 305 304 303 303 303 303 303 302 302 302 302 303 303 303 303 304 305 305 306 306
Wind_Speed
7 6 5 5 5 5 4 4 5 5 4 4 4 4 4 4 4 4 4 4 3 3 3 4 4 4 5 7 7 8 8 8 8 8 8 8 8 8 9 9 9 9 9 9 9 9 8 8 7 6 5 5 5 5 5 5 6 7 8 8 7 7 8 9 9 9 10 10 8
8 7 6 6 5 5 4 4 5 5 5 4 4 4 4 3 3 3 4 4 3 3 4 4 5 5 6 7 8 8 9 9 9 9 8 8 8 9 9 9 9 9 10 10 9 8 7 8 7 6 5 5 5 5 6 6 7 8 9 10 8 7 7 7 7 8 9 9 9
8 7 7 6 6 5 5 5 5 6 6 5 5 4 4 3 3 3 3 3 4 4 4 4 5 6 7 7 7 8 9 9 9 9 8 8 8 9 9 8 9 9 9 9 9 8 7 7 6 6 5 5 6 6 6 7 8 8 9 9 7 6 6 6 6 7 6 6 8
8 8 7 7 8 7 6 5 6 7 7 6 5 5 4 4 3 3 3 3 4 4 4 5 5 5 6 7 8 8 9 9 9 9 8 8 9 9 9 9 9 9 9 8 9 8 8 8 6 5 5 6 7 7 7 7 8 8 7 7 6 6 6 6 6 6 5 5 6
8 8 7 7 8 8 7 6 7 7 7 6 6 5 5 4 3 3 3 3 4 4 5 6 5 5 5 6 8 9 10 10 9 8 8 8 8 8 8 9 9 8 8 8 8 8 8 8 6 5 6 6 6 6 7 8 8 8 6 5 5 5 5 5 5 5 5 5 5
8 8 7 7 8 8 7 6 8 7 7 6 7 6 6 4 4 4 4 4 4 5 6 6 5 5 6 7 8 9 10 9 8 8 8 8 8 8 8 9 9 8 8 8 9 9 8 7 5 5 5 6 6 7 8 9 8 7 7 6 5 5 5 6 5 5 6 6 7
9 8 8 8 8 8 7 7 7 7 7 7 8 8 8 6 6 6 5 5 4 4 5 5 5 6 6 7 8 9 9 9 8 8 8 8 8 8 8 8 9 9 8 9 9 8 8 7 6 5 5 5 6 7 9 9 8 7 7 6 5 5 5 6 5 5 7 9 10
9 9 9 9 9 9 9 9 8 7 7 6 8 9 9 8 8 7 6 5 4 4 4 4 6 6 7 7 8 8 9 9 9 8 8 8 8 8 8 9 9 9 9 8 8 8 7 6 5 6 6 5 5 7 9 10 9 9 8 7 6 5 5 5 5 6 7 10 10
9 9 9 8 8 9 9 9 9 8 8 8 9 9 10 9 9 8 6 5 4 4 4 5 6 7 7 8 8 9 9 9 9 9 8 8 8 8 8 8 8 8 8 7 8 8 8 6 5 6 6 5 6 7 9 11 10 10 9 7 6 5 5 5 5 6 8 9 10
9 9 9 8 8 8 9 9 9 9 9 9 10 10 10 10 9 8 6 5 5 4 4 5 6 7 8 8 8 9 9 9 9 9 9 8 8 8 8 7 8 8 7 7 7 7 7 6 6 6 6 6 7 9 10 10 10 10 8 6 6 6 6 5 6 7 7 8 9
10 9 9 8 8 9 8 8 8 8 8 9 10 10 10 9 9 8 7 6 5 5 5 6 6 7 7 8 8 8 8 8 8 9 9 8 8 8 8 7 8 7 7 7 6 6 6 6 7 7 8 7 8 9 10 10 10 9 8 6 6 7 7 6 6 6 6 7 8
10 10 9 9 9 9 8 8 7 8 8 9 9 9 9 9 9 8 8 7 6 6 6 6 7 7 7 7 7 8 8 9 9 9 9 9 8 8 8 8 7 7 7 7 6 6 5 6 8 9 9 9 7 8 9 10 9 9 8 7 7 6 6 7 6 5 5 6 8
10 10 10 9 9 9 8 8 7 7 8 9 9 9 8 8 9 9 9 8 7 6 5 6 6 6 6 6 7 8 8 9 10 10 9 9 8 8 8 8 7 7 7 7 6 6 6 7 9 9 10 9 7 7 8 9 9 9 8 8 7 7 6 7 6 6 6 7 7
11 10 10 10 10 9 8 8 7 7 7 9 8 8 8 7 8 9 9 8 7 6 5 5 5 5 5 6 7 8 9 9 10 10 10 9 8 8 8 8 8 7 7 6 6 7 8 8 9 10 10 10 9 9 9 9 9 8 8 8 8 7 7 7 7 7 7 8 8
11 11 11 11 10 9 8 8 7 7 7 8 8 8 7 6 7 8 8 8 7 6 5 5 4 4 5 6 7 8 9 10 10 10 10 9 9 9 8 8 8 7 7 7 7 8 8 9 10 10 10 10 10 9 9 9 8 8 8 8 8 7 7 7 7 7 8 8 9
11 11 11 11 11 10 9 8 6 6 7 8 8 8 7 6 7 7 8 9 7 6 5 5 5 4 4 6 7 8 8 9 10 10 10 9 9 9 9 8 8 8 8 8 8 8 8 9 9 9 10 10 10 9 9 8 8 8 7 7 7 7 7 7 7 7 8 8 9
12 12 11 11 11 10 10 9 7 7 8 9 9 8 7 6 6 7 8 9 8 7 6 6 5 5 5 6 7 7 8 8 9 9 9 9 9 9 9 9 8 8 8 8 8 9 9 9 9 9 9 10 9 9 8 8 7 7 7 7 7 7 7 7 7 7 8 8 9
12 12 12 12 12 11 11 10 9 8 9 10 10 9 8 7 7 7 8 9 9 8 8 7 6 5 5 6 7 7 7 8 9 9 9 9 9 9 9 9 8 8 8 8 8 9 9 9 9 9 9 9 9 8 8 8 7 7 7 7 7 7 7 7 7 7 8 8 9
12 12 12 12 12 12 11 11 10 10 10 11 10 9 8 8 8 8 8 9 10 10 9 8 7 6 7 7 7 7 8 8 10 10 10 10 9 9 9 9 8 8 8 8 8 9 9 9 9 9 9 9 9 8 8 8 7 7 7 7 7 7 7 7 7 7 7 8 9
12 13 13 12 12 12 11 11 11 10 11 11 11 10 9 9 9 9 9 10 10 10 10 9 8 8 8 8 8 8 8 8 10 11 11 10 9 9 9 9 9 8 8 8 8 8 9 9 9 9 9 9 9 9 8 8 7 7 7 6 6 7 7 6 7 7 8 8 8
12 12 13 12 12 12 11 11 11 11 11 11 11 11 10 9 9 9 10 10 11 11 10 9 9 9 9 9 9 9 9 8 10 11 11 10 10 9 9 9 9 8 8 8 8 9 9 9 9 9 9 9 9 9 9 8 8 7 7 6 6 7 7 7 7 7 8 8 8
12 12 12 12 12 12 11 11 11 11 12 12 12 11 10 10 9 9 9 10 11 11 10 10 9 9 9 10 10 10 9 8 10 11 11 10 9 8 8 8 9 9 9 8 8 9 9 9 9 9 9 9 9 9 9 9 8 8 8 7 8 8 7 7 7 7 8 8 8
12 12 12 12 12 12 12 11 11 11 12 12 12 12 11 10 10 9 9 10 10 11 11 9 9 9 10 10 10 10 10 9 10 10 10 10 9 8 8 7 8 9 9 8 8 8 8 8 8 9 9 9 10 10 10 9 9 8 8 9 9 8 8 7 7 7 7 7 7
12 11 11 10 12 12 12 12 12 12 12 13 13 12 11 11 10 10 10 10 10 11 11 9 8 9 10 10 10 10 10 10 11 11 10 10 9 9 8 7 7 7 7 7 7 7 7 7 7 8 8 9 9 9 9 9 9 9 9 10 9 9 8 8 7 7 8 8 7
12 12 11 11 12 13 13 13 12 12 13 13 13 12 12 11 10 10 10 10 11 11 11 10 9 9 9 10 10 10 10 11 11 11 11 10 10 9 8 7 6 6 6 6 8 9 8 7 6 7 7 7 8 8 8 9 9 9 9 9 9 9 9 8 8 8 8 8 8
12 12 12 12 13 13 13 14 13 13 13 13 13 13 12 12 11 10 10 10 11 11 11 11 10 10 9 9 10 10 10 10 11 11 11 11 11 10 9 7 6 5 5 7 9 10 10 9 8 7 7 7 7 8 8 8 9 9 9 9 9 9 9 9 9 9 9 9 10
12 12 12 12 13 13 14 14 14 13 13 13 13 13 13 12 11 10 11 10 11 11 11 11 11 10 10 9 10 10 10 9 10 11 11 11 11 11 9 7 6 5 6 9 11 11 11 10 10 9 8 7 7 7 7 8 8 9 9 9 9 9 9 10 10 10 10 10 11
12 12 12 13 13 13 13 13 14 14 14 14 14 14 13 13 12 11 11 11 11 11 10 10 10 9 8 8 10 11 11 10 10 10 11 11 11 11 10 8 7 6 8 11 12 13 12 12 12 11 10 9 8 7 8 8 8 8 8 8 8 9 9 10 10 10 11 11 11
13 13 13 13 13 13 13 14 14 15 15 14 14 14 14 14 13 12 12 11 11 11 10 9 9 8 8 9 10 11 11 11 10 10 10 11 11 11 10 9 8 8 10 13 14 14 13 13 13 12 11 10 7 7 7 7 7 7 7 7 8 8 9 9 9 10 10 11 11
14 14 14 14 14 14 14 14 14 15 14 14 14 14 14 14 14 13 13 12 12 11 10 9 9 9 10 10 11 11 11 11 10 10 11 12 12 11 10 9 9 9 11 15 15 15 14 14 14 13 12 11 9 7 7 7 7 7 7 7 8 9 9 9 10 10 10 10 11
14 14 14 14 14 14 14 14 14 15 14 14 14 15 15 15 14 14 13 13 12 11 11 10 11 11 11 11 11 11 11 11 11 11 12 12 12 12 11 10 10 10 12 16 16 16 15 15 15 14 13 11 9 7 7 7 7 7 7 7 8 9 10 10 10 11 11 11 11
14 14 14 15 15 15 14 14 14 15 15 15 15 15 15 15 15 14 13 13 12 12 12 12 12 12 12 12 12 12 12 12 12 12 12 12 12 12 11 10 11 11 13 17 17 16 16 16 15 15 13 12 9 8 7 7 7 7 8 9 10 10 10 9 9 11 11 11 11
14 15 15 15 15 15 15 14 15 15 15 16 16 16 15 15 14 14 13 13 12 13 13 13 13 13 13 13 13 13 13 12 13 13 13 12 12 12 11 10 10 12 15 18 17 17 17 17 16 15 14 12 9 8 8 8 7 7 8 9 9 10 10 10 10 10 11 11 10
15 15 15 15 15 15 15 15 15 15 15 16 16 16 15 15 15 14 14 13 12 12 13 13 13 13 13 13 13 13 13 12 12 13 13 13 12 12 12 10 9 11 15 18 18 18 18 18 17 16 14 12 9 8 8 9 8 8 9 9 9 9 10 10 10 10 10 10 9
15 15 15 15 15 15 15 15 15 15 16 16 16 16 16 15 15 15 14 14 13 13 12 12 12 12 12 12 12 13 13 13 13 13 13 13 13 13 12 11 10 13 17 19 18 18 18 18 18 17 15 11 8 8 8 9 9 9 10 10 10 10 10 10 9 9 9 9 10
15 16 16 15 15 15 15 16 16 16 17 17 16 16 16 15 15 15 14 14 14 13 13 13 12 12 12 12 12 13 13 14 14 14 13 13 13 13 13 12 12 15 18 19 19 19 19 19 18 17 14 10 8 8 8 8 9 10 11 11 11 10 10 10 9 9 9 9 9
16 16 16 16 16 16 16 16 16 17 17 17 17 16 16 15 15 14 14 14 14 14 14 13 13 13 13 13 13 13 13 14 14 14 14 14 14 14 13 13 14 16 18 20 20 20 20 20 19 17 14 10 8 8 8 8 8 9 10 11 10 10 10 9 9 9 9 9 9
16 16 17 16 16 16 16 16 17 17 18 18 17 16 16 15 14 14 14 14 14 14 14 14 14 14 14 14 13 13 13 13 14 14 14 14 14 14 14 14 15 16 17 20 20 20 20 20 19 17 14 10 9 9 8 8 8 9 9 10 9 9 9 8 7 7 8 9 10
17 17 17 17 17 17 17 17 17 18 18 18 17 16 16 15 14 14 14 14 14 14 15 14 14 14 14 14 13 13 14 14 14 14 14 14 14 14 14 14 15 16 17 20 20 21 21 20 19 17 14 11 10 9 8 8 9 10 10 9 9 9 9 8 7 7 8 9 10
17 17 18 18 17 17 18 18 18 18 17 17 17 17 16 15 14 14 14 13 14 14 14 14 15 14 14 14 13 13 14 14 13 13 14 14 14 15 15 15 15 16 18 20 21 21 21 21 20 18 15 11 10 9 8 8 9 10 10 9 9 8 8 8 7 7 8 9 10
17 17 18 18 18 18 18 19 18 17 17 16 17 17 16 15 14 14 14 13 14 14 13 13 14 15 14 14 13 13 14 14 14 13 13 14 14 15 15 15 16 17 18 19 21 21 21 21 20 18 16 11 10 9 8 8 9 10 11 10 9 9 8 8 8 8 8 9 8
Wind_Direction
161 162 163 162 160 159 158 154 153 155 160 164 164 163 163 167 167 167 167 171 165 157 155 161 158 155 151 146 138 132 128 127 130 136 141 145 145 145 145 143 140 138 136 135 135 133 131 129 125 123 124 128 133 134 134 132 133 131 127 124 122 121 121 122 127 131 133 132 129
164 164 163 160 158 156 155 155 156 158 160 161 160 160 161 162 163 167 168 167 158 155 158 164 164 160 152 143 135 130 128 129 134 139 144 146 146 145 142 138 138 138 139 138 138 137 135 133 129 128 129 133 136 135 133 132 133 131 128 125 124 123 122 122 126 128 129 129 130
165 165 164 163 162 161 161 161 162 161 160 158 157 158 158 158 161 164 164 158 154 157 163 170 168 159 148 138 132 130 130 131 138 143 147 149 147 143 140 136 138 140 141 141 141 141 139 137 132 131 133 137 136 133 131 133 134 131 128 126 125 125 126 125 126 126 124 125 128
165 166 167 166 165 165 165 165 164 162 160 155 155 156 157 155 155 153 150 145 153 161 168 172 167 155 143 135 132 131 132 136 142 147 150 149 144 140 138 139 141 142 141 139 138 137 136 135 132 132 134 134 132 131 133 137 136 132 127 126 125 125 126 127 128 127 124 123 123
168 169 170 167 166 166 166 166 165 162 158 153 154 155 155 150 147 143 143 146 160 168 171 171 164 153 142 137 134 133 134 138 144 149 150 145 139 138 141 146 144 140 135 131 130 130 131 131 129 130 132 131 131 133 136 139 135 131 126 124 123 124 125 125 126 127 127 126 125
169 170 170 166 165 164 165 166 165 161 157 156 157 157 155 149 148 148 150 154 161 167 170 170 163 154 146 139 135 134 135 140 146 149 148 141 138 142 147 149 143 137 130 126 126 126 127 128 126 126 126 127 130 135 139 139 134 130 126 124 122 123 125 127 127 130 133 135 133
168 169 169 167 167 165 164 164 163 160 158 160 160 159 157 154 152 151 151 151 154 163 172 174 167 158 148 141 137 136 137 142 147 148 145 139 142 148 151 147 140 135 131 129 128 128 127 126 124 124 125 128 132 138 141 141 137 133 130 126 124 123 126 128 131 135 139 140 139
168 169 170 169 168 166 163 162 162 161 161 164 162 160 158 156 154 151 146 146 150 164 178 182 171 161 151 144 141 140 141 145 148 147 145 142 147 150 149 143 138 135 133 133 132 131 128 127 125 126 129 132 135 141 144 144 141 137 133 128 125 124 126 130 137 141 143 144 144
168 170 171 170 169 166 164 164 165 164 164 165 163 160 158 157 154 150 145 145 152 167 181 187 175 164 155 148 145 144 145 147 148 147 146 146 150 149 146 140 138 137 136 136 133 131 129 127 126 129 132 137 140 144 146 147 144 140 135 130 128 127 128 132 141 144 146 147 147
167 168 169 169 168 167 165 165 167 166 165 164 163 160 159 158 154 150 145 144 150 168 184 189 180 170 161 153 149 147 147 147 147 146 146 148 150 148 144 140 140 139 138 137 133 130 128 125 127 131 136 140 142 145 147 150 146 142 138 133 132 131 131 133 139 143 145 147 146
166 167 168 167 167 167 166 166 167 167 166 164 163 161 160 159 155 150 144 142 152 171 186 189 185 176 166 156 152 150 149 148 147 146 147 149 150 147 143 139 140 139 137 136 133 131 128 127 130 134 138 140 143 146 148 150 147 144 140 137 136 135 133 133 136 139 141 143 141
165 165 166 166 167 166 166 167 168 168 167 166 164 163 162 160 154 149 145 145 156 171 185 190 188 181 170 158 154 152 150 148 147 148 149 151 150 146 141 139 139 138 137 136 134 132 131 133 135 137 139 140 143 147 149 151 149 146 144 142 141 139 136 134 134 134 135 138 138
164 164 165 166 166 166 166 168 169 169 169 167 166 165 164 160 154 149 146 147 154 166 181 189 192 185 174 161 156 153 151 149 149 150 150 151 149 145 141 139 140 139 138 138 138 138 138 139 140 140 141 142 144 148 150 152 151 150 149 149 147 142 137 134 132 131 133 137 136
164 164 165 166 166 166 167 169 170 171 170 169 167 167 165 159 153 148 145 144 150 160 175 186 193 190 178 163 157 154 153 151 152 151 151 151 148 146 143 141 142 141 141 141 143 143 143 144 144 144 144 144 145 148 151 153 153 153 153 152 147 141 135 132 132 133 135 137 136
164 165 166 167 168 168 168 170 171 171 171 170 170 170 168 160 153 148 145 142 146 155 169 181 191 190 178 163 158 155 153 153 153 152 152 151 149 147 145 145 145 145 145 145 146 147 147 147 147 146 145 144 145 147 150 153 153 152 151 148 142 136 132 132 134 136 137 138 137
165 166 167 169 170 170 170 170 171 171 171 171 171 172 170 162 154 149 145 142 144 152 166 180 186 184 173 160 156 154 153 153 152 153 153 153 152 150 149 148 148 148 148 148 148 148 148 148 147 146 144 143 142 144 145 146 145 142 139 135 132 130 130 132 135 136 137 137 138
167 167 169 172 173 173 173 172 171 171 171 171 172 173 171 162 156 151 148 144 145 152 165 179 181 177 167 160 156 155 155 154 153 153 155 156 155 153 151 150 149 149 149 149 148 147 147 146 145 143 140 138 137 136 135 133 130 127 124 123 123 125 128 131 133 134 135 136 136
170 169 171 175 176 175 174 173 171 171 171 171 172 173 171 164 159 154 151 148 148 154 164 176 178 175 169 163 160 160 160 160 157 157 158 159 158 155 152 149 149 148 149 148 146 144 143 141 139 136 134 131 128 125 122 120 117 116 116 118 121 124 127 129 130 131 132 133 134
174 172 173 177 178 177 175 174 172 170 170 170 172 172 170 164 161 157 154 152 152 156 163 173 176 177 175 168 165 165 165 165 163 162 162 163 160 156 152 148 146 145 145 144 141 139 137 135 133 130 127 124 121 118 115 113 113 113 115 118 120 122 123 124 125 126 128 131 133
178 176 175 178 179 178 176 175 172 170 169 170 171 171 169 165 163 162 159 157 155 157 162 169 175 178 177 172 170 169 170 169 168 167 166 167 163 157 151 146 143 142 140 139 137 135 134 132 130 127 125 122 120 119 117 116 116 118 119 119 119 118 118 118 119 122 125 128 132
182 179 177 177 178 178 177 175 172 170 169 169 170 170 168 166 166 166 164 160 156 157 161 169 176 179 179 175 173 173 172 172 171 171 170 169 164 157 149 145 143 141 139 138 137 136 134 132 130 128 127 126 125 124 125 124 125 125 124 121 117 115 113 113 116 119 122 125 130
185 182 178 177 177 177 176 174 172 171 169 168 169 168 167 167 168 168 165 161 157 157 160 168 176 180 180 178 176 174 172 171 172 172 171 169 162 154 148 146 145 143 140 139 138 137 135 132 132 133 133 132 132 132 132 132 132 130 127 122 118 115 113 111 113 116 118 121 124
186 183 179 177 176 175 174 172 172 171 170 168 168 167 167 168 169 167 165 162 159 158 159 165 175 180 182 181 179 175 171 169 170 171 170 166 158 152 149 151 150 146 141 138 138 137 135 133 136 138 139 138 138 137 137 137 136 134 130 125 121 117 114 112 113 114 116 117 118
185 183 181 178 176 174 172 171 171 172 171 170 168 166 166 168 169 168 166 164 161 158 158 162 171 178 182 183 181 176 171 168 168 168 167 163 157 154 154 156 153 145 137 133 136 138 139 139 142 144 143 141 139 139 139 140 139 136 132 128 123 120 117 115 115 116 116 116 116
183 182 181 179 176 174 171 170 172 173 173 171 167 165 165 167 169 170 169 167 163 159 158 160 167 174 180 183 181 178 174 171 169 168 166 163 160 159 159 158 153 144 136 135 140 143 144 145 147 145 143 139 137 137 138 140 139 136 132 128 126 123 121 120 119 119 120 119 117
181 181 181 180 178 175 172 170 172 173 174 172 168 165 164 166 169 171 171 169 165 161 159 159 164 170 176 180 179 179 177 175 173 171 168 165 165 164 164 161 155 148 144 145 149 151 151 149 147 143 139 137 137 138 138 137 135 133 130 128 128 127 127 126 125 123 122 118 115
179 180 181 181 179 177 174 171 171 173 175 173 169 166 165 166 169 172 173 172 167 162 159 159 162 167 172 176 177 178 179 178 177 175 172 170 169 168 167 165 159 155 154 154 157 158 156 152 147 143 141 140 139 139 138 135 134 132 131 130 130 130 130 129 126 124 120 117 116
179 179 180 181 181 179 176 171 172 174 175 174 171 167 165 165 169 173 175 174 168 164 160 160 162 165 169 174 177 179 179 179 178 177 176 174 173 172 171 169 163 160 159 160 162 162 159 155 150 146 144 141 139 137 136 135 134 134 134 133 132 132 131 129 126 124 121 120 119
180 179 180 182 182 180 177 174 175 175 175 174 172 168 166 166 170 173 176 175 170 167 164 161 161 164 169 173 176 178 180 179 178 178 177 177 176 175 174 172 166 162 162 163 165 164 161 157 153 149 145 142 140 139 138 138 138 138 136 134 134 134 132 130 128 126 124 123 122
180 180 181 182 182 181 180 178 177 175 174 173 172 170 168 168 171 174 176 177 175 172 168 163 163 166 170 172 173 176 178 178 178 178 179 179 177 177 176 174 168 164 163 166 166 164 161 157 153 149 145 141 140 139 140 142 141 139 136 135 135 135 133 132 130 129 128 127 126
182 182 182 183 182 182 182 180 177 175 174 173 173 172 170 170 172 175 177 179 177 174 169 165 167 169 170 170 172 174 176 176 177 179 180 180 177 176 174 172 167 164 164 167 166 164 160 157 153 149 145 142 141 141 141 142 140 138 136 135 136 136 135 133 132 132 131 130 129
184 183 183 184 183 183 182 180 177 176 174 174 174 174 173 172 173 175 177 179 177 174 171 170 170 170 171 171 172 174 175 175 177 178 179 178 175 173 171 169 165 163 164 167 166 163 159 156 152 149 145 142 140 139 140 140 137 135 133 133 135 136 136 135 134 133 133 132 131
186 185 185 185 183 182 180 179 177 176 175 175 176 176 175 174 173 174 177 178 178 176 175 173 173 172 172 173 173 174 174 175 176 177 176 175 172 169 167 167 164 162 163 166 164 162 158 155 151 148 145 142 139 138 138 137 134 132 132 133 135 136 136 135 135 135 135 134 132
188 187 186 185 183 181 179 178 177 176 176 177 177 177 176 174 173 175 177 179 179 179 177 176 175 174 173 174 174 173 173 173 174 174 173 171 169 167 165 165 161 161 163 165 164 161 158 154 151 148 144 141 139 139 139 136 134 133 133 134 135 135 135 135 134 134 134 134 133
190 188 186 185 183 180 178 178 178 177 177 178 179 179 177 175 175 176 177 179 179 179 178 177 176 174 173 175 174 173 172 172 172 172 171 169 168 166 165 163 159 160 162 165 163 161 157 154 150 147 144 141 140 140 139 137 135 135 135 135 135 134 133 132 132 133 134 135 134
192 189 187 185 183 181 179 178 179 179 180 180 180 179 178 177 176 176 176 177 178 178 178 176 175 174 174 175 175 175 173 172 172 171 170 169 168 167 165 163 159 160 163 165 163 161 158 154 150 147 144 142 141 141 140 138 136 136 137 136 135 134 133 131 132 133 135 136 136
193 190 188 186 184 182 181 180 180 182 183 182 181 180 179 177 176 176 176 177 178 178 178 175 175 175 175 176 175 175 175 173 172 171 170 170 169 168 165 162 160 161 163 165 163 161 158 154 151 148 146 144 144 143 142 140 138 138 138 137 135 134 133 131 132 134 136 137 138
195 192 189 187 185 184 183 182 183 184 185 183 182 180 179 177 176 176 177 178 178 178 177 175 176 176 176 175 174 174 174 173 173 172 171 171 170 169 166 162 160 161 163 165 163 161 158 155 153 150 149 146 147 146 145 143 142 141 140 138 136 135 134 132 134 135 137 138 138
195 193 191 189 187 185 185 185 185 186 186 184 182 180 179 177 176 177 178 179 179 179 177 176 176 175 175 174 173 173 173 173 174 173 173 172 171 169 166 162 160 161 163 165 164 162 159 156 154 152 151 149 149 148 147 145 145 143 142 140 138 136 136 135 136 136 136 136 136
196 194 192 190 188 187 186 187 187 187 186 184 182 180 179 178 177 177 178 180 180 180 178 177 176 175 174 173 173 172 172 172 174 175 175 173 171 169 167 163 160 161 162 165 164 162 160 158 156 155 153 151 152 151 149 148 146 146 145 143 142 141 140 139 139 139 138 138 138
196 195 193 191 189 188 188 188 187 187 186 185 183 181 179 178 177 177 178 180 181 180 178 176 175 174 174 174 173 172 171 172 174 176 176 173 170 169 168 165 161 161 162 164 164 163 161 159 158 157 156 154 154 153 152 150 149 149 148 148 146 145 143 143 144 144 143 144 144